Location: Bratislava
(48.1500°N, 17.1170°E)
Time: 07:46:25
(UTC+02:00)

ISS - Pass Details

Date: 25 March 2019
Orbit: 408 x 410 km, 51.6° (Epoch: 25 April)

Event Time Altitude Azimuth Distance (km) Brightness Sun altitude
Rises 20:13:16 0° 263° (W) 2,333 0.9 -20.3°
Reaches altitude 10° 20:15:23 10° 268° (W) 1,472 -0.2 -20.6°
Maximum altitude 20:18:38 54° 347° (NNW) 502 -3.2 -21.1°
Enters shadow 20:18:44 54° 356° (N) 504 -3.3 -21.1°
